sat.trackr.live / text

‹ back to catalog

STARLINK-31571

NORAD 59362 · 2024-060Q

PAYLOAD ACTIVE UNKNOWN

§ Identity

Operator
Country
US
Launch date
2024-03-31
Launch site
AFETR
Launch vehicle
Mass (kg)
RCS (m²)

Purposes: comms

External: N2YO · Heavens-Above · Gunter

§ Orbital elements

Epoch: 2026-05-25T03:30:19.550304Z

Period
94.27 min
Inclination
43.0010°
Eccentricity
0.0001259
Mean motion
15.27560481 rev/d
Perigee alt
482.2 km
Apogee alt
484.0 km
Semi-major
6,861.2 km
B*
8.6875e-5
RAAN
188.2581°
Arg perigee
275.7704°
Mean anomaly
84.3004°
Rev number
12,175

§ Raw data

STARLINK-315711 59362U 24060Q   26145.14605961  .00002128  00000+0  86875-4 0  99972 59362  43.0010 188.2581 0001259 275.7704  84.3004 15.27560481121751

JSON: /api/v1/satellites/59362 · /tle

For live sub-satellite position, see the globe view (requires WebGL).

§ Visibility from observer

Set your observer location to see the next 7 days of passes ≥ 10°. The values pass through the URL so the page stays shareable.

No JS? Fill the form by hand. The geolocation button needs JavaScript.